Uitslag Watermolentriatlon top 3

# Naam Totaal
1 Strijck Sven 01:58:13 84.23
2 Veramme Koen 02:01:20 81.50
3 De Grooff David 02:01:41 81.33
4 Stubbe Matthias 02:03:46 80.31
5 Van Heirseele Steven 02:04:06 80.14
6 Bruggeman Tom 02:08:36 77.94
7 Slock Pieter 02:09:00 77.74
8 Wieme Ulrik 02:10:06 77.20
9 De Clercq Jan 02:10:21 77.08
10 Van Overmeire Jeroen 02:10:28 77.02
11 Nellen Maïk 02:10:31 77.00
12 Van Ranst Gijs 02:11:07 76.70
13 De Malsche Tom 02:11:15 76.64
14 Van De Wielle Jan 02:11:19 76.60
15 De Ridder Steve 02:12:57 75.80
16 Van Verre Wim 02:13:15 75.66
17 De Wispelaere Luc 02:13:18 75.63
18 Degroote Francesco 02:13:48 75.39
19 Maetens Jeroen 02:13:49 75.38
20 Vanoverberghe Patrick 02:13:56 75.32
21 Anne Filip 02:14:04 75.25
22 Ceelen Pieter 02:14:29 75.05
23 Stevens Jelle 02:14:38 74.98
24 De Rore Geert 02:14:59 74.80
25 Tempels Kris 02:15:25 74.59
26 Driessen Elias 02:15:28 74.57
27 De Mey Liam 02:17:02 73.80
28 Sanders Sören 02:17:09 73.74
29 Clauwaert Kevin 02:17:32 73.55
30 Juliens Edwin 02:19:13 72.73
31 Duquet Tom 02:20:07 72.29
32 Zaman Joris 02:20:38 72.03
33 Mul Rudy 02:20:48 71.95
34 Uyttersprot Ken 02:20:52 71.92
35 Jacquemijns Jeroen 02:21:00 71.85
36 Jacobs Tim 02:21:28 71.62
37 De Decker Dimitri 02:21:39 71.53
38 Melon Patrick 02:21:49 71.45
39 Meulders Ben 02:22:04 71.33
40 De Smet John 02:22:18 71.22
41 Van Den Broeck Walter 02:22:28 71.13
42 Herweghe Ward 02:22:32 71.10
43 Maes Sven 02:22:46 70.99
44 Christiaens Filip 02:22:53 70.93
45 Vermeir Gerd 02:23:48 70.48
46 Wauters Rik 02:24:03 70.36
47 De Schryver Christian 02:24:06 70.33
48 Vercauteren Jordy 02:24:35 70.10
49 D'hooghe Christophe 02:24:38 70.07
50 Vandewal Martijn 02:25:24 69.69
51 Mertens Stijn 02:25:55 69.44
52 Van Den Berghe Bjorn 02:25:59 69.41
53 De Wilde Tom 02:27:53 68.48
54 Van Hout Ilse 02:28:03 70.88
55 De Schoesitter Steven 02:28:51 68.00
56 Delvoy Joeri 02:28:53 67.99
57 Pieters Cindy 02:29:16 69.09
58 De Meyer Dominique 02:30:06 67.39
59 Peeters Stefan 02:30:14 67.32
60 Vanbelleghem Sem 02:30:39 67.12
61 Tysmans Harry 02:30:44 67.08
62 De Ridder Ivo 02:30:48 67.05
63 Buytaert Filip 02:31:06 66.90
64 Van Thuyne Mieke 02:31:13 68.15
65 Schaerlaeken Soren 02:31:14 66.83
66 Wulteputte Johan 02:32:04 66.42
67 Broucke Stijn 02:32:05 66.42
68 Belaen Peter 02:32:17 66.32
69 Cuepers Rony 02:32:26 66.24
70 Goris Bart 02:32:27 66.24
71 Van De Steene Alain 02:32:41 66.12
72 Vanhaute Willem-jan 02:32:48 66.06
73 Verhulst Jan 02:33:05 65.93
74 Triest Stijn 02:33:14 65.85
75 De Munter Gert 02:33:28 65.74
76 Burm Tony 02:34:04 65.44
77 Vermeulen Dieter 02:34:31 65.22
78 Wyckmans Rikkert 02:34:53 65.04
79 Mengde Walter 02:34:53 65.04
80 Vansteenkiste Stephan 02:35:14 64.87
81 Vandenbussche Wannes 02:35:34 64.71
82 Rangan Giancarlo 02:36:03 64.47
83 Covens Tom 02:36:04 64.46
84 De Cooremeter Michiel 02:36:30 64.25
85 De Bondt Frank 02:37:01 64.00
86 Haesebeyt Jeroen 02:37:55 63.55
87 Rombout Ive 02:38:12 63.42
88 Menten Koen 02:38:24 63.32
89 Le Roy Filip 02:38:34 63.24
90 Verbeiren Katrien 02:38:42 64.55
91 Van Damme Veerle 02:38:43 64.54
92 Deleu Dominique 02:38:56 63.06
93 Flo Joachim 02:39:09 62.95
94 Van Overtveldt Leen 02:40:22 63.74
95 Van Meerbeeck Christophe 02:41:49 61.64
96 Joos Lieven 02:41:49 61.64
97 Vernimmen Joris 02:43:45 60.69
98 Cattrysse Jonas 02:45:46 59.70
99 Wauters Elke 02:46:00 61.03
100 Geerinckx Gunther 02:46:10 59.51
101 Derweduwen An 02:46:26 60.82
102 Van Den Broeck Mark 02:46:37 59.29
103 Zehner Ralf 02:46:42 59.25
104 Sewell Jude 02:48:25 58.40
105 Vankrunkelsven Jelle 02:48:43 58.26
106 Lutin Bert 02:48:48 58.22
107 De Block Filip 02:48:58 58.13
108 Weyn Els 02:48:58 59.60
109 Buysse Hans 02:50:17 57.49
110 Teirbrood Eddy 02:50:18 57.48
111 Goddeeris Andreas 02:50:25 57.42
112 Baeke Ingrid 02:50:36 58.81
113 Van Hoecke Evi 02:50:51 58.69
114 Meul Inge 02:50:54 58.67
115 Verbeke Stephen 02:51:02 57.12
116 Ydens-bogaert Ginie 02:51:10 58.54
117 Peleman Christophe 02:51:54 56.69
118 Cobbaert Timothy 02:52:26 56.43
119 Van Den Berghe Wim 02:53:20 55.99
120 De Vleeschauwer Stanny 02:53:23 55.97
121 De Clercq Liesbeth 02:53:44 57.30
122 Van Meirvenne Dirk 02:53:51 55.74
123 Fraeyman Thomas 02:55:08 55.11
124 Peelman Lieven 02:57:06 54.14
125 Militis Remy 02:59:35 52.93
126 Cattrysse Pieter 03:02:48 51.35
127 Omta Tjarda 03:05:13 50.16
128 Claessens Bart 03:06:19 49.62
129 Heyvaert Pierre 03:08:27 48.58
130 Thomas Mieke 03:15:22 46.88
131 Van Brussel Tim 03:17:14 44.27
132 Verbruggen Cathy 03:21:25 43.96
133 Raes Matthias 03:23:57 40.97
134 Fonteyn Luc 03:25:40 39.63
135 Vanlierde Sofie 03:32:39 38.05

Reacties

  • Nog geen reacties beschikbaar